Tracking 29510 objects as of 16-Sep-2024
HD Live streaming from Space Station
objects crossing your sky now

YAOGAN 4 DEB

Track YAOGAN 4 DEB now!
10-day predictions


NORAD ID: 35575
Int'l Code: 2008-061B
Perigee: 641.9 km
Apogee: 959.6 km
Inclination: 97.7 °
Period: 100.7 minutes
Semi major axis: 7171 km
RCS: 0.0013 m2 (small)
Launch date: December 1, 2008
Source: People's Republic of China (PRC)
Launch site: Jiuquan Satellite Launch Center, China (JSC)

Note: This is SATELLITE DEBRIS
Your satellite tracking list
Your tracking list is empty




NASA's NSSDC Master Catalog

Two Line Element Set (TLE):
1 35575U 08061B   24259.52348742  .00005406  00000-0  16369-2 0  9999
2 35575  97.7248 101.7608 0221546 315.0813  43.2629 14.29438243817325
Source of the keplerian elements: AFSPC